Location: Goettingen
(51.5300°N, 9.9433°E)
Time: 23:25:41
(UTC+02:00)

ISS - Pass Details

Date: 22 July 2021
Orbit: 419 x 421 km, 51.6° (Epoch: 28 July)

Event Time Altitude Azimuth Distance (km) Brightness Sun altitude
Rises 22:14:15 0° 269° (W) 2,370 0.8 -6.9°
Reaches altitude 10° 22:16:21 10° 270° (W) 1,506 -0.2 -7.2°
Maximum altitude 22:19:44 86° 358° (N) 427 -3.7 -7.5°
Drops below altitude 10° 22:23:08 10° 89° (E) 1,505 -1.3 -7.9°
Enters shadow 22:24:39 - 90° (E) 2,128 -0.6 -8.1°
